Location: Sevilla
(37.3933°N, 5.9839°W)
Time: 13:10:41
(UTC+02:00)

S-56A Canister/Altair - Pass Details

Date: 29 June 2024
Orbit: 638 x 2488 km, 38.9° (Epoch: 14 July)

Event Time Altitude Azimuth Distance (km) Brightness Sun altitude
Rises 02:06:45 0° 287° (WNW) 4,612 11.8 -29.2°
Reaches altitude 10° 02:09:27 10° 284° (WNW) 3,849 11.3 -29.2°
Maximum altitude 02:19:59 69° 205° (SSW) 2,205 9.5 -29.4°
Drops below altitude 10° 02:34:23 10° 126° (SE) 5,098 11.4 -29.4°
Sets 02:38:32 0° 124° (SE) 6,151 11.9 -29.3°
